Location: Sungai Liu
(2.3667°N, 113.8667°E)
Time: 13:56:37
(UTC+00:00)

DELTA 2 DEB (DPAF) - Pass Details

Date: 20 May 2022
Orbit: 635 x 639 km, 98.4° (Epoch: 06 July)

Event Time Altitude Azimuth Distance (km) Brightness Sun altitude
Exits shadow 20:41:40 27° 174° (S) 1,241 5.4 -22.4°
Maximum altitude 20:44:05 79° 258° (WSW) 654 3.9 -21.8°
Drops below altitude 10° 20:48:30 10° 345° (NNW) 2,023 6.8 -20.8°
Sets 20:50:41 0° 346° (NNW) 2,929 7.6 -20.3°
